weather.gov     
National Weather Service

Regional Weather Roundup
NWS Homepage
This page is being discontinued on March 12, 2014.
The same data is available at this site. Please update your bookmarks.
Thank you, and we apologize for the inconvenience.
Please send an email to SR-SRH.Webmaster@noaa.gov with any concerns.


Current Version
Previous Version:    01  02  03  04  05  06  07  08  09  10  11  12  13  14  15  16  17  18  19  20  21  22  23  24  25  26  27  28  29  30  
   31  32  33  34  35  36  37  38  39  40  41  42  43  44  45  46  47  48  49  50  
[Printable]
094
ASUS44 KFWD 250815
RWRTX
NORTH TEXAS HOURLY WEATHER ROUNDUP
NATIONAL WEATHER SERVICE FORT WORTH TX
300 AM CDT SAT OCT 25 2014

NOTE: "FAIR" INDICATES FEW OR NO CLOUDS BELOW 12,000 FEET WITH NO
SIGNIFICANT WEATHER AND/OR OBSTRUCTIONS TO VISIBILITY.

TXZ118-119-250900-
DALLAS/FORT WORTH METROPLEX

CITY           SKY/WX    TMP DP  RH WIND       PRES   REMARKS
DFW AIRPORT    PTCLDY    67  58  72 S9        30.09S
DALLAS LOVE    CLEAR     69  58  67 S8        30.10S
FTW MEACHAM    CLEAR     69  59  70 S8        30.09S
DAL-EXECUTIVE  CLEAR     69  58  67 S6        30.10S
FTW-ALLIANCE   CLEAR     66  59  78 S6        30.09S
FTW-NAS-JRB    CLEAR     72  58  61 S7        30.13S
FTW-SPINKS     CLEAR     68  59  73 S9        30.11F
ARLINGTON      CLEAR     68  57  68 S8        30.10S
GRAND PRAIRIE  CLEAR     67  60  75 S8        30.11S
ADDISON        CLEAR     68  61  77 S6        30.12S
MESQUITE       CLEAR     62  58  88 S3        30.12R
LANCASTER      CLEAR     63  56  79 CALM      30.12S
$$

TXZ091>094-102>105-117-120-121-131>134-250900-
NORTH CENTRAL TEXAS

CITY           SKY/WX    TMP DP  RH WIND       PRES   REMARKS
SHRMAN/DENISON CLEAR     66  61  84 S9        30.10S
GAINESVILLE    CLEAR     63  59  88 S6        30.11S
BOWIE          CLEAR     63  60  88 SE3       30.09S
BRIDGEPORT     CLEAR     69  60  75 CALM      30.10S
DECATUR        CLEAR     67  58  72 S5        30.10S
DENTON         CLEAR     65  59  81 SE8       30.09S
MCKINNEY       CLEAR     62  58  86 S6        30.10S
GREENVILLE     CLEAR     63  57  82 S5        30.12R
ROCKWALL       CLEAR     64  60  86 S7        30.10S
TERRELL        CLEAR     63  59  87 S3        30.12S
WAXAHACHIE     CLEAR     63  58  83 S5        30.12S
CLEBURNE       CLEAR     64  61  88 S5        30.12S
GRANBURY       CLEAR     69  60  71 CALM      30.11S
$$

TXZ083>090-098>101-113>116-127>130-139>142-154-155-250900-
WESTERN NORTH TEXAS

CITY           SKY/WX    TMP DP  RH WIND       PRES   REMARKS
WICHITA FALLS  CLEAR     62  57  83 S8        30.06S
WF-KICKAPOO    CLEAR     65  57  76 SW5       30.08S
VERNON         CLEAR     63  55  77 SW6       30.07S
ABILENE        CLEAR     68  55  63 SW5       30.13S
ABILENE-DYESS  CLEAR     64  54  69 S7        30.12R
BRECKENRIDGE   CLEAR     72  57  59 S9        30.09S
GRAHAM         CLEAR     67  59  77 CALM      30.08S
MINERAL WELLS  CLEAR     63  59  87 SE8       30.08F
STEPHENVILLE   CLEAR     63  58  83 S3        30.14F
COMANCHE       CLEAR     68  60  75 S14       30.12F
BROWNWOOD      CLEAR     61  57  88 SE5       30.14S
COLEMAN        CLEAR     62  57  81 S3        30.15S
BRADY          CLEAR     64  55  72 SE5       30.15S
$$

TXZ143>147-156>162-174-175-250900-
CENTRAL TEXAS

CITY           SKY/WX    TMP DP  RH WIND       PRES   REMARKS
WACO           CLEAR     64  58  80 S9        30.12S
WACO-MCGREGOR  CLEAR     63  54  72 S6        30.13F
HILLSBORO      CLEAR     65  56  74 S7        30.12S
CORSICANA      CLEAR     63  58  83 S6        30.12F
MEXIA          CLEAR     61  57  88 S3        30.11F
HEARNE         CLEAR     60  57  91 CALM      30.13F FOG
CAMERON        CLEAR     63  58  83 SW5       30.12F
TEMPLE         CLEAR     63  54  72 S6        30.12S
KILLEEN        CLEAR     67  58  73 S9        30.14S
KILLEEN-SKYLRK CLEAR     64  54  68 S7        30.12S
FORT HOOD      CLEAR     67  58  72 S5        30.13F
GATESVILLE     CLEAR     68  57  68 S6        30.15S
HAMILTON       CLEAR     67  58  73 S10       30.14S
LAMPASAS       CLEAR     64  59  85 CALM      30.14S
$$

TXZ095>097-106>112-122>126-135>138-148>153-164>167-250900-
EAST TEXAS

CITY           SKY/WX    TMP DP  RH WIND       PRES   REMARKS
PARIS          CLEAR     61  52  72 S6        30.12S
SULPHUR SPRNGS CLEAR     65  59  81 S6        30.13S
MOUNT PLEASANT CLEAR     60  58  95 CALM      30.13S
MINEOLA        CLEAR     61  57  88 CALM      30.13S
TYLER          CLEAR     61  57  87 S6        30.12S
LONGVIEW       CLEAR     59  55  87 S5        30.12S
MARSHALL       CLEAR     56  54  92 CALM      30.15R
ATHENS         CLEAR     57  55  94 CALM      30.12S
PALESTINE      CLEAR     63  58  85 SE3       30.14S
JACKSONVILLE   CLEAR     64  57  77 S6        30.15S
HENDERSON      CLEAR     55  55 100 CALM      30.14S
NACOGDOCHES    CLEAR     52  48  87 CALM      30.14S
LUFKIN         CLEAR     57  53  86 CALM      30.14S
$$

SUPPLEMENTAL OBSERVATIONS (CENTRAL)

CITY           SKY/WX    TMP DP  RH WIND       PRES   REMARKS
LAKE TEXOMA      N/A     70  59  68 S2          N/A
CADDO GRASSLND   N/A     64  57  77 S8          N/A
PAT MAYSE LAKE   N/A     64  59  82 SE3         N/A
CEDAR HILL       N/A     66  55  68 S5          N/A
ATHENS           N/A     64  57  77 S3          N/A
LAKE LIMESTONE   N/A     61  57  88 S1          N/A
MCGREGOR         N/A     61  55  82 SW2         N/A
TEMPLE           N/A     64  57  77 SW1         N/A
$$

SUPPLEMENTAL OBSERVATIONS (WEST)

CITY           SKY/WX    TMP DP  RH WIND       PRES   REMARKS
MILLERS CREEK    N/A     63  48  59 SW7         N/A
POSSUM KINGDOM   N/A     72  55  56 S8          N/A
LBJ GRASSLAND    N/A     66  57  72 SE6         N/A
GRANBURY         N/A     70  59  68 SE1         N/A
COMANCHE         N/A     68  57  68 S10         N/A
HAMBY            N/A     64  54  68 S5          N/A
IVIE RESERVOIR   N/A     63  54  72 CALM        N/A
COLORADO BEND    N/A     66  57  72 S6          N/A
$$

SUPPLEMENTAL OBSERVATIONS (EAST)

CITY           SKY/WX    TMP DP  RH WIND       PRES   REMARKS
CLARKSVILLE      N/A     61  57  88 S2          N/A
TEXARKANA        N/A     52  50  93 CALM        N/A
CADDO LAKE       N/A     52  50  93 CALM        N/A
LUFKIN           N/A     54  52  94 MISG        N/A
N SABINE NF      N/A     48  45  87 MISG        N/A
S SABINE NF      N/A     52  48  87 CALM        N/A
$$

SUPPLEMENTAL OBSERVATIONS ARE A COLLECTION OF AUTOMATED INSTRUMENTS
THAT ARE MAINTAINED BY A VARIETY OF FEDERAL AND STATE AGENCIES.
CERTAIN ELEMENTS...SUCH AS HUMIDITY VALUES AND SUSTAINED WIND
SPEEDS...MAY BE APPROXIMATED.





U.S. Dept. of Commerce
NOAA National Weather Service
1325 East West Highway
Silver Spring, MD 20910
E-mail: w-nws.webmaster@noaa.gov
Page last modified: May 16, 2007
NATIONAL WEATHER SERVICE: for Safety, for Work, for Fun - FOR LIFE